Location: Davidschlag
(48.4333°N, 14.2833°E)
Time: 19:05:12
(UTC+00:00)

Cosmos 1066 Rocket - Pass Details

Date: 27 February 2020
Orbit: 799 x 894 km, 81.2° (Epoch: 05 April)

Event Time Altitude Azimuth Distance (km) Brightness Sun altitude
Rises 19:34:26 0° 347° (NNW) 3,479 7.8 -28.8°
Reaches altitude 10° 19:36:52 10° 348° (NNW) 2,547 7.1 -29.2°
Enters shadow 19:42:03 72° 343° (NNW) 936 4.4 -30.0°
